Date String (YYYY-MM-DD hh:mm:ss) UTC,Instrument flags,Ambient pressure (hPa),Sample flow (lpm),Bypass flow (lpm),Sample temperature (°C),Ambient temperature (°C),ASC tube jacket temperature (°C),LED temperature (°C),Box temperature (°C),Sample RH (%),Span deviation,Mass concentration (μg/m³),Mass concentration (μg/m³),Mass concentration (μg/m³)
DateTimeUTC,F1_M11,P_M11,Q1_M11,Q2_M11,T1_M11,T2_M11,T3_M11,T4_M11,T5_M11,U1_M11,ZSPAN_M11,X0_M11,X2_M11,X1_M11
2023-05-29 17:00:00,,0828.9,4.99,0.00,29.5,27.9,00.0,37.8,31.2,27.3,0000.0,0010.69,0004.68,0003.81
2023-05-29 17:01:00,,0828.9,5.00,0.00,29.5,26.4,00.0,37.7,31.0,26.3,0000.0,0010.89,0004.66,0003.80
2023-05-29 17:02:00,,0828.8,5.00,0.00,29.4,25.2,00.0,37.6,30.8,26.7,0000.0,0010.20,0004.61,0003.78
2023-05-29 17:03:00,,0828.7,5.01,0.00,29.4,25.2,00.0,37.5,30.7,27.5,0000.0,0009.94,0004.58,0003.76
2023-05-29 17:04:00,,0828.8,5.01,0.00,29.3,25.5,00.0,37.5,30.6,27.4,0000.0,0009.98,0004.56,0003.74
2023-05-29 17:05:00,,0828.8,4.99,0.00,29.2,25.8,00.0,37.5,30.7,27.8,0000.0,0009.87,0004.56,0003.71
2023-05-29 17:06:00,,0828.8,5.00,0.00,29.2,26.2,00.0,37.5,30.7,26.2,0000.0,0009.37,0004.58,0003.71
2023-05-29 17:07:00,,0828.9,5.00,0.00,29.2,26.5,00.0,37.5,30.7,26.4,0000.0,0009.51,0004.63,0003.70
2023-05-29 17:08:00,,0828.9,5.00,0.00,29.2,26.8,00.0,37.5,30.8,26.7,0000.0,0009.55,0004.64,0003.69
2023-05-29 17:09:00,,0829.0,4.99,0.00,29.2,27.0,00.0,37.5,30.8,26.8,0000.0,0009.55,0004.64,0003.68
2023-05-29 17:10:00,,0828.9,5.00,0.00,29.2,27.2,00.0,37.5,30.8,27.0,0000.0,0009.50,0004.63,0003.68
2023-05-29 17:11:00,,0829.0,4.99,0.00,29.2,27.3,00.0,37.5,30.8,26.7,0000.0,0009.25,0004.65,0003.69
2023-05-29 17:12:00,,0829.0,5.00,0.00,29.2,27.5,00.0,37.6,30.9,26.2,0000.0,0008.96,0004.62,0003.68
2023-05-29 17:13:00,,0829.0,5.00,0.00,29.2,27.6,00.0,37.6,30.9,26.2,0000.0,0008.88,0004.60,0003.69
2023-05-29 17:14:00,,0829.0,5.01,0.00,29.3,27.7,00.0,37.6,30.9,27.0,0000.0,0009.07,0004.63,0003.70
2023-05-29 17:15:00,,0829.0,5.01,0.00,29.3,27.8,00.0,37.6,31.0,26.2,0000.0,0009.32,0004.63,0003.70
2023-05-29 17:16:00,,0829.0,5.00,0.00,29.3,27.9,00.0,37.6,31.0,26.2,0000.0,0009.34,0004.65,0003.72
2023-05-29 17:17:00,,0829.0,5.00,0.00,29.3,27.9,00.0,37.6,31.0,26.6,0000.0,0009.27,0004.62,0003.72
2023-05-29 17:18:00,,0829.0,5.00,0.00,29.3,28.0,00.0,37.6,31.1,26.1,0000.0,0009.15,0004.58,0003.72
2023-05-29 17:19:00,,0829.0,5.01,0.00,29.4,28.0,00.0,37.6,31.1,26.0,0000.0,0008.91,0004.51,0003.72
2023-05-29 17:20:00,,0828.9,5.00,0.00,29.4,28.1,00.0,37.6,31.1,26.1,0000.0,0008.80,0004.50,0003.72
2023-05-29 17:21:00,,0828.9,5.01,0.00,29.4,28.1,00.0,37.7,31.1,26.6,0000.0,0008.81,0004.50,0003.72
2023-05-29 17:22:00,,0828.9,4.99,0.00,29.5,27.7,00.0,37.7,31.1,26.7,0000.0,0008.76,0004.48,0003.71
2023-05-29 17:23:00,,0829.0,5.00,0.00,29.4,26.3,00.0,37.6,31.0,26.4,0000.0,0008.76,0004.53,0003.72
2023-05-29 17:24:00,,0828.9,5.01,0.00,29.4,25.9,00.0,37.5,30.9,26.0,0000.0,0008.93,0004.54,0003.71
2023-05-29 17:25:00,,0828.7,5.01,0.00,29.3,26.1,00.0,37.5,30.8,25.6,0000.0,0008.99,0004.51,0003.70
2023-05-29 17:26:00,,0828.8,5.00,0.00,29.3,26.4,00.0,37.5,30.8,26.6,0000.0,0008.65,0004.49,0003.70
2023-05-29 17:27:00,,0828.8,5.00,0.00,29.3,26.6,00.0,37.6,30.8,27.7,0000.0,0008.58,0004.47,0003.69
2023-05-29 17:28:00,,0828.8,5.00,0.00,29.3,26.9,00.0,37.6,30.9,26.2,0000.0,0008.68,0004.50,0003.68
2023-05-29 17:29:00,,0828.9,4.99,0.00,29.3,27.1,00.0,37.6,30.9,26.5,0000.0,0008.85,0004.56,0003.68
2023-05-29 17:30:00,,0829.0,5.00,0.00,29.3,27.3,00.0,37.6,30.9,26.8,0000.0,0008.96,0004.60,0003.69
2023-05-29 17:31:00,,0829.0,5.00,0.00,29.3,27.5,00.0,37.6,31.0,25.0,0000.0,0009.01,0004.59,0003.69
2023-05-29 17:32:00,,0829.0,4.99,0.00,29.3,27.6,00.0,37.6,31.0,24.4,0000.0,0009.15,0004.60,0003.68
2023-05-29 17:33:00,,0829.0,4.99,0.00,29.3,27.7,00.0,37.6,31.0,24.6,0000.0,0009.23,0004.62,0003.68
2023-05-29 17:34:00,,0829.0,5.00,0.00,29.3,27.8,00.0,37.6,31.0,24.2,0000.0,0009.21,0004.62,0003.67
2023-05-29 17:35:00,,0829.1,5.00,0.00,29.4,27.9,00.0,37.6,31.1,24.3,0000.0,0009.25,0004.66,0003.68
2023-05-29 17:36:00,,0829.1,5.00,0.00,29.4,28.0,00.0,37.7,31.1,24.7,0000.0,0009.21,0004.70,0003.67
2023-05-29 17:37:00,,0829.0,5.00,0.00,29.4,27.5,00.0,37.6,31.1,24.2,0000.0,0009.19,0004.72,0003.68
2023-05-29 17:38:00,,0829.0,5.00,0.00,29.4,25.8,00.0,37.6,30.8,24.1,0000.0,0009.25,0004.72,0003.68
2023-05-29 17:39:00,,0829.0,5.01,0.00,29.3,24.9,00.0,37.5,30.6,24.8,0000.0,0009.16,0004.69,0003.67
2023-05-29 17:40:00,,0828.9,5.02,0.00,29.2,25.0,00.0,37.4,30.5,24.9,0000.0,0009.18,0004.65,0003.66
2023-05-29 17:41:00,,0828.9,5.00,0.00,29.1,25.3,00.0,37.4,30.5,26.0,0000.0,0009.69,0004.62,0003.65
2023-05-29 17:42:00,,0828.9,5.00,0.00,29.0,25.7,00.0,37.4,30.5,25.8,0000.0,0009.73,0004.65,0003.67
2023-05-29 17:43:00,,0829.0,5.00,0.00,29.0,26.0,00.0,37.4,30.5,25.8,0000.0,0010.82,0004.63,0003.67
2023-05-29 17:44:00,,0829.0,5.00,0.00,29.0,26.4,00.0,37.4,30.6,26.8,0000.0,0011.14,0004.63,0003.69
2023-05-29 17:45:00,,0829.0,4.99,0.00,29.0,26.7,00.0,37.4,30.6,27.5,0000.0,0011.58,0004.64,0003.70
2023-05-29 17:46:00,,0829.0,4.99,0.00,29.0,26.9,00.0,37.4,30.7,27.5,0000.0,0011.53,0004.64,0003.70
2023-05-29 17:47:00,,0829.0,4.99,0.00,29.0,27.1,00.0,37.4,30.7,28.0,0000.0,0011.86,0004.60,0003.72
2023-05-29 17:48:00,,0829.0,5.00,0.00,29.1,27.3,00.0,37.4,30.7,28.8,0000.0,0011.87,0004.62,0003.73
2023-05-29 17:49:00,,0829.0,5.00,0.00,29.1,27.4,00.0,37.4,30.8,28.3,0000.0,0012.42,0004.64,0003.75
2023-05-29 17:50:00,,0829.0,5.00,0.00,29.1,27.6,00.0,37.4,30.8,28.7,0000.0,0012.87,0004.70,0003.77
2023-05-29 17:51:00,,0828.9,5.01,0.00,29.1,27.7,00.0,37.4,30.8,27.5,0000.0,0012.71,0004.70,0003.78
2023-05-29 17:52:00,,0828.9,5.00,0.00,29.2,27.7,00.0,37.5,30.9,27.2,0000.0,0012.41,0004.71,0003.79
2023-05-29 17:53:00,,0828.9,5.00,0.00,29.2,27.8,00.0,37.5,30.9,28.5,0000.0,0012.99,0004.71,0003.79
2023-05-29 17:54:00,,0829.0,4.99,0.00,29.2,27.9,00.0,37.5,31.0,28.6,0000.0,0011.82,0004.76,0003.81
2023-05-29 17:55:00,,0829.0,5.00,0.00,29.3,28.0,00.0,37.5,31.0,28.2,0000.0,0011.71,0004.80,0003.83
2023-05-29 17:56:00,,0829.0,4.99,0.00,29.3,28.0,00.0,37.5,31.0,27.7,0000.0,0011.31,0004.79,0003.84
2023-05-29 17:57:00,,0828.9,5.00,0.00,29.3,28.1,00.0,37.6,31.1,27.7,0000.0,0011.34,0004.77,0003.85
2023-05-29 17:58:00,,0828.9,4.99,0.00,29.3,27.2,00.0,37.5,31.0,26.7,0000.0,0011.68,0004.81,0003.86
2023-05-29 17:59:00,,0829.0,5.01,0.00,29.3,25.9,00.0,37.4,30.8,27.6,0000.0,0011.74,0004.83,0003.86
